Погода в Усть-Неме

Россия / Республика Коми     61°38′01″N   54°52′39″E
темп.,
°C
ветер,
м/с
пор.,
м/с
влажн.,
%
обл.,
%
осадки,
мм/ч
давл.,
гПа
погр.,
м
19 апреля, пн
пн1900:00−6ссв14885 0.0 103892
03:00−7с11925 0.0 103933
06:00−5ссз11735 0.0 1039184
09:000ссз23525 0.0 10381101
12:00+2ссз23435 0.0 10371401
15:00+3сз23415 0.0 10361443
18:000з11722 0.0 103510
21:00−4з11885 0.0 103516
20 апреля, вт
вт2000:00−4зюз258343 0.0 103475
03:00−3з2107857 0.0 1034201
06:000з3106689 0.0 1033329
09:00+5зсз474895 0.0 1033894
12:00+8зсз464467 0.0 10311242
15:00+8сз46497 0.0 10311214
18:00+3зсз118210 0.0 103010
21:00−2сз119255 0.0 103110
21 апреля, ср
ср2100:00−2сз11945 0.0 103110
03:00−3зюз00954 0.0 103210
06:00+2юв11731 0.0 103282
09:00+8ююв22560 0.0 1031589
12:00+10юв345040 0.0 10291134
15:00+11ююв364999 0.0 10281293
18:00+7ююв3968100 0.0 1027221
21:00+6ююв41374100 0.0 1026474
22 апреля, чт
чт2200:00+5ююв41468100 0.0 1025522
03:00+5ююв41367100 0.0 1025577
06:00+6ююв51365100 0.0 1024860
09:00+7ю51461100 0.0 10231146
12:00+6ю51187100 0.2 10231134
15:00+4ю51196100 1.3 1023942
18:00+4ю41097100 0.8 1023895
21:00+3ююз41097100 0.9 1024773
23 апреля, пт
пт2300:00+4ю41093100 0.2 1023858
03:00+4ю41296100 0.3 1023647
06:00+5ю41192100 0.1 1022964
09:00+7ююз51085100 0.4 1023848
12:00+9ююз587581 0.1 10231139
15:00+8ююз4775100 0.3 1024783
18:00+7ю3784100 0.0 1025228
21:00+6ю2585100 0.0 1025126